COSMOS 886 DEB

Satellite information

Favourite Embed

Satellite Type and Status

DEBRISIN ORBIT

Key statistics

Satellite COSMOS 886 DEB at a glance.

Uptime

17664

Days in orbit

Revolutions

≈ 13.8

Per day

Orbit

LEO

Low Earth Orbit

Inclination

65.8

Latest

Satellite identification and parameters

Extended collection of information and parameters for COSMOS 886 DEB.

Object identification

Identified? True

Debris? True

Object name: COSMOS 886 DEB

International designator: 1976-126BC

Object number (NORAD): 9962

Object ID (CCSDS): 9962

Country: COMMONWEALTH OF INDEPENDENT STATES (CIS)

Current information (Y/N): Y

RCS size: MEDIUM

Orbital parameters

Period: 103.994 minutes

Inclination: 65.766 deg

SMA: 7325.398 km

Apoapsis: 1363.768 km

Periapsis: 530.759 km

RAAN: 302.9751 deg

Eccentricy: 0.0568576

Argument of periapsis: 21.5133 deg

Mean anomaly: 340.8821 deg

Mean motion: 13.84700685 rev/day

Mean motion (dot): 0.00003545 rev/day2

B* drag term: 0.00089505 1/REarth

Two-line elements (TLE)

Creation date: May 8, 2025, 3:01 a.m.

Reference frame: TEME

Reference center: EARTH

Epoch: May 7, 2025, 8:31 p.m. UTC

TLE line 0: 0 COSMOS 886 DEB

TLE line 1: 1 09962U 76126BC 25127.85504029 .00003545 00000-0 89505-3 0 9995

TLE line 2: 2 09962 65.7660 302.9751 0568576 21.5133 340.8821 13.84700685339819

Live tracking on map

Real-time ground track for satellite COSMOS 886 DEB.

In-orbit conjunctions

A list of the most updated potential collisions computed for object COSMOS 886 DEB.

Target Orbit TCA Probability of collision Miss distance Type
THOR ABLESTAR DEB LEO 2024-11-10 13:18:47 0.0001839587 197.0 (m) DEBRIS

Associated space launch

Second generation ASAT satellite

COSMOS 886 DEB was lifted into orbit during the mission ‘Tsiklon-2 | IS-A 4’, on board a Tsiklon-2 space rocket.

The launch took place on Dec. 27, 1976, 12:05 p.m. from 90.

For more information about the launch, click the button.

Launch to space Tsiklon-2 | IS-A 4
Tsiklon-2 | IS-A 4

Agency: N/A

Status: Launch Successful

Launch date: Dec. 27, 1976, 12:05 p.m. UTC

Rocket: Tsiklon-2

Launch pad: 90

Location: Baikonur Cosmodrome, Republic of Kazakhstan

...

Latest news about this satellite

There are no fresh news available about this satellite. Check back as we update our databases every day.


Newsletter sign-up

Weekly statistics, charts and insights to help you stay on top of the space industry.